Location: Black Creek
(40.9000°S, 175.5500°E)
Time: 19:07:25
(UTC+00:00)

OAO 3 Rocket - Pass Details

Date: 04 August 2024
Orbit: 620 x 670 km, 35.0° (Epoch: 17 September)

Event Time Altitude Azimuth Distance (km) Brightness Sun altitude
Exits shadow 17:38:15 30° 312° (NW) 1,187 4.1 -19.5°
Maximum altitude 17:39:47 38° 351° (N) 1,014 4.1 -19.2°
Drops below altitude 10° 17:44:18 10° 59° (ENE) 2,090 6.8 -18.4°
Sets 17:46:49 0° 66° (ENE) 3,007 8.0 -17.9°
